Weather in Poertschach am Woerthersee

Austria     46°38′11″N   14°08′20″E
temp.,
°C
wind,
m/s
gust,
m/s
humid.,
%
clouds,
%
prec.,
mm/h
press.,
hPa
HPBL,
m
9 march, tue
tue901:00+1e1198100 1.4 1021112
04:000ese1297100 0.6 1020176
07:00−1e1196100 0.9 102090
10:00+2ese127799 0.1 1019541
13:00+4e116596 0.3 1017883
16:00+3e126498 0.0 1016880
19:000ne117992 0.0 101821
22:00−1n1184100 0.0 102021
10 march, wed
wed1001:00−2nne0188100 0.0 102021
04:00−2n118828 0.0 101921
07:00−2n118014 0.0 102143
10:00+4sse11560 0.0 1021621
13:00+7ssw11508 0.1 10201030
16:00+6sse115448 0.3 1020914
19:00+1ne127938 0.4 102225
22:00−1nne118584 0.0 102421
11 march, thu
thu1101:00−1nne018887 0.0 102438
04:00−1ene009187 0.0 102261
07:00−1nne019182 0.0 102237
10:00+3sse116998 0.0 1021450
13:00+7sse135899 0.0 1019778
16:00+7s1362100 0.0 1017803
19:00+3sw1281100 0.0 101841
22:000wsw1188100 0.0 101733
12 march, fri
fri1201:00−1wnw119284 0.0 101724
04:00−1n009241 0.0 101721
07:00+1ne008558 0.0 101936
10:00+6ese116799 0.0 1019417
13:00+6ese1177100 0.2 1018474
16:00+3ne1196100 3.1 1016179
19:00+2nnw1198100 5.6 101768
22:00+1nw009799 0.8 101924
13 march, sat
sat1301:00+1nnw0093100 0.8 101928
04:00+1n119396 0.0 101942
07:00+1n118895 0.0 102064
10:00+5n0177100 0.0 1019472
13:00+9sse136094 0.0 10161117
16:00+7s237591 0.1 1014699
19:00+3ssw019386 0.3 101423
22:00+2wsw119284 0.0 101424